Time,TemperatureF,DewpointF,PressureIn,WindDirection,WindDirectionDegrees,WindSpeedMPH,WindSpeedGustMPH,Humidity,HourlyPrecipIn,Conditions,Clouds,dailyrainin,SoftwareType,DateUTC
2013-01-02 00:01:00,36.1,32.0,30.17,East,96,0.0,0.0,85,0.00,,---,0.00,VWS V14.01,2013-01-02 08:01:00,
2013-01-02 00:06:00,36.0,31.9,30.17,East,96,0.0,0.0,85,0.00,,---,0.00,VWS V14.01,2013-01-02 08:06:00,
2013-01-02 00:11:00,36.0,31.6,30.17,East,96,0.0,0.0,84,0.00,,---,0.00,VWS V14.01,2013-01-02 08:11:00,
2013-01-02 00:16:00,35.8,31.5,30.17,East,96,0.0,0.0,84,0.00,,---,0.00,VWS V14.01,2013-01-02 08:16:00,
2013-01-02 00:21:00,35.6,31.5,30.17,East,96,0.0,0.0,85,0.00,,---,0.00,VWS V14.01,2013-01-02 08:21:00,
2013-01-02 00:26:00,35.4,31.4,30.17,East,96,0.0,0.0,85,0.00,,---,0.00,VWS V14.01,2013-01-02 08:26:00,
2013-01-02 00:31:00,35.6,31.8,30.17,East,96,0.0,0.0,86,0.00,,---,0.00,VWS V14.01,2013-01-02 08:31:00,
2013-01-02 00:36:00,35.7,31.6,30.17,East,96,0.0,0.0,85,0.00,,---,0.00,VWS V14.01,2013-01-02 08:36:00,
2013-01-02 00:41:00,35.9,31.5,30.17,East,96,0.0,0.0,84,0.00,,---,0.00,VWS V14.01,2013-01-02 08:41:00,
2013-01-02 00:46:00,35.9,31.5,30.17,East,96,0.0,0.0,84,0.00,,---,0.00,VWS V14.01,2013-01-02 08:46:00,
2013-01-02 00:51:00,35.9,31.5,30.17,East,96,0.0,0.0,84,0.00,,---,0.00,VWS V14.01,2013-01-02 08:51:00,
2013-01-02 00:56:00,35.7,31.4,30.17,East,96,0.0,0.0,84,0.00,,---,0.00,VWS V14.01,2013-01-02 08:56:00,
2013-01-02 01:01:00,35.7,31.4,30.17,East,96,0.0,0.0,84,0.00,,---,0.00,VWS V14.01,2013-01-02 09:01:00,
2013-01-02 01:06:00,35.6,31.2,30.17,East,96,0.0,0.0,84,0.00,,---,0.00,VWS V14.01,2013-01-02 09:06:00,
2013-01-02 01:12:00,35.5,31.1,30.17,East,96,0.0,0.0,84,0.00,,---,0.00,VWS V14.01,2013-01-02 09:12:00,
2013-01-02 01:17:00,35.4,31.1,30.17,East,96,0.0,0.0,84,0.00,,---,0.00,VWS V14.01,2013-01-02 09:17:00,
2013-01-02 01:22:00,35.3,31.0,30.17,East,96,0.0,0.0,84,0.00,,---,0.00,VWS V14.01,2013-01-02 09:22:00,
2013-01-02 01:27:00,35.2,30.9,30.17,East,96,0.0,0.0,84,0.00,,---,0.00,VWS V14.01,2013-01-02 09:27:00,
2013-01-02 01:32:00,35.1,30.5,30.17,East,96,0.0,0.0,83,0.00,,---,0.00,VWS V14.01,2013-01-02 09:32:00,
2013-01-02 01:37:00,35.1,30.5,30.17,East,101,0.0,0.0,83,0.00,,---,0.00,VWS V14.01,2013-01-02 09:37:00,
2013-01-02 01:42:00,35.1,30.5,30.17,East,101,0.0,0.0,83,0.00,,---,0.00,VWS V14.01,2013-01-02 09:42:00,
2013-01-02 01:47:00,35.2,30.6,30.17,East,101,0.0,0.0,83,0.00,,---,0.00,VWS V14.01,2013-01-02 09:47:00,
2013-01-02 01:52:00,35.2,30.6,30.17,East,101,0.0,0.0,83,0.00,,---,0.00,VWS V14.01,2013-01-02 09:52:00,
2013-01-02 01:57:00,35.3,30.4,30.17,ESE,113,0.0,0.0,82,0.00,,---,0.00,VWS V14.01,2013-01-02 09:57:00,
2013-01-02 02:02:00,35.3,30.4,30.17,ESE,117,0.0,0.0,82,0.00,,---,0.00,VWS V14.01,2013-01-02 10:02:00,
2013-01-02 02:07:00,35.3,30.4,30.17,ESE,116,0.0,0.0,82,0.00,,---,0.00,VWS V14.01,2013-01-02 10:07:00,
2013-01-02 02:12:00,35.3,30.4,30.17,ESE,117,0.0,0.0,82,0.00,,---,0.00,VWS V14.01,2013-01-02 10:12:00,
2013-01-02 02:17:00,35.3,30.4,30.17,ESE,117,0.0,0.0,82,0.00,,---,0.00,VWS V14.01,2013-01-02 10:17:00,
2013-01-02 02:22:00,35.2,30.3,30.17,ESE,117,0.0,0.0,82,0.00,,---,0.00,VWS V14.01,2013-01-02 10:22:00,
2013-01-02 02:27:00,35.1,30.2,30.17,ESE,117,0.0,0.0,82,0.00,,---,0.00,VWS V14.01,2013-01-02 10:27:00,
2013-01-02 02:32:00,35.0,30.1,30.17,East,101,0.0,0.0,82,0.00,,---,0.00,VWS V14.01,2013-01-02 10:32:00,
2013-01-02 02:37:00,34.9,30.0,30.17,East,101,0.0,0.0,82,0.00,,---,0.00,VWS V14.01,2013-01-02 10:37:00,
2013-01-02 02:43:00,34.8,29.9,30.17,East,96,0.0,0.0,82,0.00,,---,0.00,VWS V14.01,2013-01-02 10:43:00,
2013-01-02 02:48:00,34.7,29.8,30.17,East,86,1.0,0.0,82,0.00,,---,0.00,VWS V14.01,2013-01-02 10:48:00,
2013-01-02 02:53:00,34.6,29.7,30.17,East,94,0.0,0.0,82,0.00,,---,0.00,VWS V14.01,2013-01-02 10:53:00,
2013-01-02 02:58:00,34.6,29.7,30.17,East,99,1.0,0.0,82,0.00,,---,0.00,VWS V14.01,2013-01-02 10:58:00,
2013-01-02 03:03:00,34.6,29.4,30.16,East,98,2.0,0.0,81,0.00,,---,0.00,VWS V14.01,2013-01-02 11:03:00,
2013-01-02 03:08:00,34.6,29.4,30.16,East,88,1.0,0.0,81,0.00,,---,0.00,VWS V14.01,2013-01-02 11:08:00,
2013-01-02 03:13:00,34.6,29.4,30.16,East,91,1.0,0.0,81,0.00,,---,0.00,VWS V14.01,2013-01-02 11:13:00,
2013-01-02 03:18:00,34.5,29.6,30.16,East,92,2.0,0.0,82,0.00,,---,0.00,VWS V14.01,2013-01-02 11:18:00,
2013-01-02 03:23:00,34.4,29.5,30.16,ESE,106,2.0,0.0,82,0.00,,---,0.00,VWS V14.01,2013-01-02 11:23:00,
2013-01-02 03:28:00,34.3,29.1,30.15,East,96,1.0,0.0,81,0.00,,---,0.00,VWS V14.01,2013-01-02 11:28:00,
2013-01-02 03:33:00,34.2,29.3,30.15,East,92,1.0,0.0,82,0.00,,---,0.00,VWS V14.01,2013-01-02 11:33:00,
2013-01-02 03:38:00,34.3,29.1,30.15,East,94,0.0,0.0,81,0.00,,---,0.00,VWS V14.01,2013-01-02 11:38:00,
2013-01-02 03:43:00,34.3,29.1,30.15,East,97,1.0,0.0,81,0.00,,---,0.00,VWS V14.01,2013-01-02 11:43:00,
2013-01-02 03:48:00,34.2,29.0,30.15,East,92,2.0,0.0,81,0.00,,---,0.00,VWS V14.01,2013-01-02 11:48:00,
2013-01-02 03:54:00,34.1,28.9,30.14,ESE,115,0.0,0.0,81,0.00,,---,0.00,VWS V14.01,2013-01-02 11:54:00,
2013-01-02 03:59:00,34.1,29.2,30.14,East,99,0.0,0.0,82,0.00,,---,0.00,VWS V14.01,2013-01-02 11:59:00,
2013-01-02 04:04:00,34.0,29.1,30.14,East,96,0.0,0.0,82,0.00,,---,0.00,VWS V14.01,2013-01-02 12:04:00,
2013-01-02 04:09:00,33.9,29.0,30.14,ENE,67,0.0,0.0,82,0.00,,---,0.00,VWS V14.01,2013-01-02 12:09:00,
2013-01-02 04:14:00,33.9,29.0,30.14,East,94,0.0,0.0,82,0.00,,---,0.00,VWS V14.01,2013-01-02 12:14:00,
2013-01-02 04:19:00,33.8,28.9,30.14,East,98,0.0,0.0,82,0.00,,---,0.00,VWS V14.01,2013-01-02 12:19:00,
2013-01-02 04:24:00,33.9,29.0,30.14,East,98,0.0,0.0,82,0.00,,---,0.00,VWS V14.01,2013-01-02 12:24:00,
2013-01-02 04:29:00,34.0,29.1,30.13,East,93,0.0,0.0,82,0.00,,---,0.00,VWS V14.01,2013-01-02 12:29:00,
2013-01-02 04:34:00,34.1,29.2,30.13,East,91,0.0,0.0,82,0.00,,---,0.00,VWS V14.01,2013-01-02 12:34:00,
2013-01-02 04:39:00,34.1,29.2,30.13,East,91,0.0,0.0,82,0.00,,---,0.00,VWS V14.01,2013-01-02 12:39:00,
2013-01-02 04:44:00,34.2,29.3,30.13,ESE,102,0.0,0.0,82,0.00,,---,0.00,VWS V14.01,2013-01-02 12:44:00,
2013-01-02 04:49:00,34.2,29.3,30.13,ESE,103,0.0,0.0,82,0.00,,---,0.00,VWS V14.01,2013-01-02 12:49:00,
2013-01-02 04:54:00,34.3,29.1,30.12,East,101,0.0,0.0,81,0.00,,---,0.00,VWS V14.01,2013-01-02 12:54:00,
2013-01-02 04:59:00,34.3,29.1,30.12,East,93,1.0,0.0,81,0.00,,---,0.00,VWS V14.01,2013-01-02 12:59:00,
2013-01-02 05:04:00,34.3,29.1,30.12,East,98,0.0,0.0,81,0.00,,---,0.00,VWS V14.01,2013-01-02 13:04:00,
2013-01-02 05:09:00,34.3,29.1,30.12,East,96,1.0,0.0,81,0.00,,---,0.00,VWS V14.01,2013-01-02 13:09:00,
2013-01-02 05:14:00,34.4,29.2,30.12,East,88,0.0,0.0,81,0.00,,---,0.00,VWS V14.01,2013-01-02 13:14:00,
2013-01-02 05:20:00,34.4,28.9,30.12,East,94,1.0,0.0,80,0.00,,---,0.00,VWS V14.01,2013-01-02 13:20:00,
2013-01-02 05:25:00,34.4,29.2,30.12,East,94,0.0,0.0,81,0.00,,---,0.00,VWS V14.01,2013-01-02 13:25:00,
2013-01-02 05:30:00,34.5,29.0,30.12,SE,144,0.0,0.0,80,0.00,,---,0.00,VWS V14.01,2013-01-02 13:30:00,
2013-01-02 05:35:00,34.6,29.1,30.12,East,96,0.0,0.0,80,0.00,,---,0.00,VWS V14.01,2013-01-02 13:35:00,
2013-01-02 05:40:00,34.7,29.2,30.12,ESE,102,1.0,0.0,80,0.00,,---,0.00,VWS V14.01,2013-01-02 13:40:00,
2013-01-02 05:45:00,34.6,29.1,30.12,ESE,102,0.0,0.0,80,0.00,,---,0.00,VWS V14.01,2013-01-02 13:45:00,
2013-01-02 05:50:00,34.7,29.2,30.12,ESE,103,0.0,0.0,80,0.00,,---,0.00,VWS V14.01,2013-01-02 13:50:00,
2013-01-02 05:55:00,34.6,29.1,30.12,ESE,102,0.0,0.0,80,0.00,,---,0.00,VWS V14.01,2013-01-02 13:55:00,
2013-01-02 06:00:00,34.6,29.1,30.12,SW,215,0.0,0.0,80,0.00,,---,0.00,VWS V14.01,2013-01-02 14:00:00,
2013-01-02 06:05:00,34.4,28.9,30.12,SW,214,0.0,0.0,80,0.00,,---,0.00,VWS V14.01,2013-01-02 14:05:00,
2013-01-02 06:10:00,34.2,29.0,30.12,SW,215,0.0,0.0,81,0.00,,---,0.00,VWS V14.01,2013-01-02 14:10:00,
2013-01-02 06:15:00,34.0,28.8,30.12,SW,215,0.0,0.0,81,0.00,,---,0.00,VWS V14.01,2013-01-02 14:15:00,
2013-01-02 06:20:00,33.9,28.7,30.12,SW,215,0.0,0.0,81,0.00,,---,0.00,VWS V14.01,2013-01-02 14:20:00,
2013-01-02 06:25:00,33.8,28.6,30.12,SW,215,1.0,0.0,81,0.00,,---,0.00,VWS V14.01,2013-01-02 14:25:00,
2013-01-02 06:30:00,33.8,28.6,30.12,East,98,0.0,0.0,81,0.00,,---,0.00,VWS V14.01,2013-01-02 14:30:00,
2013-01-02 06:35:00,33.7,28.5,30.12,East,98,0.0,0.0,81,0.00,,---,0.00,VWS V14.01,2013-01-02 14:35:00,
2013-01-02 06:40:00,33.5,28.6,30.12,East,96,0.0,0.0,82,0.00,,---,0.00,VWS V14.01,2013-01-02 14:40:00,
2013-01-02 06:46:00,33.6,28.7,30.13,East,96,0.0,0.0,82,0.00,,---,0.00,VWS V14.01,2013-01-02 14:46:00,
2013-01-02 06:51:00,33.6,28.4,30.13,East,96,0.0,0.0,81,0.00,,---,0.00,VWS V14.01,2013-01-02 14:51:00,
2013-01-02 06:56:00,33.7,28.5,30.13,East,96,0.0,0.0,81,0.00,,---,0.00,VWS V14.01,2013-01-02 14:56:00,
2013-01-02 07:01:00,33.7,28.5,30.13,East,96,0.0,0.0,81,0.00,,---,0.00,VWS V14.01,2013-01-02 15:01:00,
2013-01-02 07:06:00,33.7,28.5,30.13,East,96,0.0,0.0,81,0.00,,---,0.00,VWS V14.01,2013-01-02 15:06:00,
2013-01-02 07:11:00,33.6,28.4,30.13,East,96,0.0,0.0,81,0.00,,---,0.00,VWS V14.01,2013-01-02 15:11:00,
2013-01-02 07:16:00,33.6,28.4,30.13,East,96,0.0,0.0,81,0.00,,---,0.00,VWS V14.01,2013-01-02 15:16:00,
2013-01-02 07:21:00,33.5,28.3,30.13,East,93,0.0,0.0,81,0.00,,---,0.00,VWS V14.01,2013-01-02 15:21:00,
2013-01-02 07:26:00,33.5,28.3,30.13,ESE,123,0.0,0.0,81,0.00,,---,0.00,VWS V14.01,2013-01-02 15:26:00,
2013-01-02 07:31:00,33.5,28.3,30.14,ESE,123,0.0,0.0,81,0.00,,---,0.00,VWS V14.01,2013-01-02 15:31:00,
2013-01-02 07:36:00,33.5,28.3,30.14,East,95,0.0,0.0,81,0.00,,---,0.00,VWS V14.01,2013-01-02 15:36:00,
2013-01-02 07:41:00,33.5,28.0,30.14,East,95,0.0,0.0,80,0.00,,---,0.00,VWS V14.01,2013-01-02 15:41:00,
2013-01-02 07:46:00,33.5,28.0,30.14,East,95,0.0,0.0,80,0.00,,---,0.00,VWS V14.01,2013-01-02 15:46:00,
2013-01-02 07:51:00,33.4,27.9,30.14,East,95,0.0,0.0,80,0.00,,---,0.00,VWS V14.01,2013-01-02 15:51:00,
2013-01-02 07:56:00,33.2,27.7,30.14,East,95,0.0,0.0,80,0.00,,---,0.00,VWS V14.01,2013-01-02 15:56:00,
2013-01-02 08:01:00,33.1,27.6,30.14,ESE,110,1.0,0.0,80,0.00,,---,0.00,VWS V14.01,2013-01-02 16:01:00,
2013-01-02 08:07:00,33.2,28.0,30.14,East,101,1.0,0.0,81,0.00,,---,0.00,VWS V14.01,2013-01-02 16:07:00,
2013-01-02 08:12:00,33.2,28.0,30.15,East,88,2.0,0.0,81,0.00,,---,0.00,VWS V14.01,2013-01-02 16:12:00,
2013-01-02 08:17:00,33.4,28.2,30.15,ESE,103,1.0,0.0,81,0.00,,---,0.00,VWS V14.01,2013-01-02 16:17:00,
2013-01-02 08:22:00,33.5,28.0,30.15,ESE,107,0.0,0.0,80,0.00,,---,0.00,VWS V14.01,2013-01-02 16:22:00,
2013-01-02 08:27:00,33.7,28.2,30.15,East,97,0.0,0.0,80,0.00,,---,0.00,VWS V14.01,2013-01-02 16:27:00,
2013-01-02 08:32:00,33.8,28.3,30.15,ENE,73,0.0,0.0,80,0.00,,---,0.00,VWS V14.01,2013-01-02 16:32:00,
2013-01-02 08:37:00,34.0,28.2,30.15,ESE,111,1.0,0.0,79,0.00,,---,0.00,VWS V14.01,2013-01-02 16:37:00,
2013-01-02 08:42:00,34.3,28.5,30.15,ESE,102,4.0,0.0,79,0.00,,---,0.00,VWS V14.01,2013-01-02 16:42:00,
2013-01-02 08:47:00,34.6,28.5,30.15,East,98,1.0,0.0,78,0.00,,---,0.00,VWS V14.01,2013-01-02 16:47:00,
2013-01-02 08:52:00,35.0,28.9,30.15,East,101,0.0,0.0,78,0.00,,---,0.00,VWS V14.01,2013-01-02 16:52:00,
2013-01-02 08:57:00,35.2,29.0,30.15,East,87,0.0,0.0,78,0.00,,---,0.00,VWS V14.01,2013-01-02 16:57:00,
2013-01-02 09:02:00,35.5,29.0,30.15,East,94,1.0,0.0,77,0.00,,---,0.00,VWS V14.01,2013-01-02 17:02:00,
2013-01-02 09:07:00,35.8,29.3,30.15,East,90,1.0,0.0,77,0.00,,---,0.00,VWS V14.01,2013-01-02 17:07:00,
2013-01-02 09:12:00,36.1,29.6,30.16,East,89,0.0,0.0,77,0.00,,---,0.00,VWS V14.01,2013-01-02 17:12:00,
2013-01-02 09:17:00,36.7,30.2,30.16,SE,124,2.0,0.0,77,0.00,,---,0.00,VWS V14.01,2013-01-02 17:17:00,
2013-01-02 09:22:00,37.2,30.4,30.16,East,80,0.0,0.0,76,0.00,,---,0.00,VWS V14.01,2013-01-02 17:22:00,
2013-01-02 09:28:00,37.8,30.6,30.16,ESE,104,0.0,0.0,75,0.00,,---,0.00,VWS V14.01,2013-01-02 17:28:00,
2013-01-02 09:33:00,38.3,30.8,30.16,ESE,109,0.0,0.0,74,0.00,,---,0.00,VWS V14.01,2013-01-02 17:33:00,
2013-01-02 09:38:00,38.9,31.3,30.16,ESE,109,0.0,0.0,74,0.00,,---,0.00,VWS V14.01,2013-01-02 17:38:00,
2013-01-02 09:43:00,39.5,31.9,30.17,ESE,109,0.0,0.0,74,0.00,,---,0.00,VWS V14.01,2013-01-02 17:43:00,
2013-01-02 09:48:00,40.1,31.8,30.17,ESE,109,1.0,0.0,72,0.00,,---,0.00,VWS V14.01,2013-01-02 17:48:00,
2013-01-02 09:53:00,40.8,31.4,30.17,ENE,61,0.0,0.0,69,0.00,,---,0.00,VWS V14.01,2013-01-02 17:53:00,
2013-01-02 09:58:00,41.6,31.8,30.17,ENE,76,0.0,0.0,68,0.00,,---,0.00,VWS V14.01,2013-01-02 17:58:00,
2013-01-02 10:03:00,42.4,33.0,30.17,ENE,76,2.0,0.0,69,0.00,,---,0.00,VWS V14.01,2013-01-02 18:03:00,
2013-01-02 10:08:00,42.9,33.4,30.17,East,85,0.0,0.0,69,0.00,,---,0.00,VWS V14.01,2013-01-02 18:08:00,
2013-01-02 10:13:00,43.3,33.5,30.17,East,85,0.0,0.0,68,0.00,,---,0.00,VWS V14.01,2013-01-02 18:13:00,
2013-01-02 10:18:00,43.8,33.6,30.17,East,85,0.0,0.0,67,0.00,,---,0.00,VWS V14.01,2013-01-02 18:18:00,
2013-01-02 10:23:00,44.4,34.1,30.17,East,85,0.0,0.0,67,0.00,,---,0.00,VWS V14.01,2013-01-02 18:23:00,
2013-01-02 10:28:00,44.9,35.0,30.16,East,85,0.0,0.0,68,0.00,,---,0.00,VWS V14.01,2013-01-02 18:28:00,
2013-01-02 10:33:00,45.2,35.3,30.16,East,85,0.0,0.0,68,0.00,,---,0.00,VWS V14.01,2013-01-02 18:33:00,
2013-01-02 10:38:00,45.6,35.3,30.16,East,85,0.0,0.0,67,0.00,,---,0.00,VWS V14.01,2013-01-02 18:38:00,
2013-01-02 10:43:00,46.0,34.9,30.16,East,85,0.0,0.0,65,0.00,,---,0.00,VWS V14.01,2013-01-02 18:43:00,
2013-01-02 10:48:00,46.5,35.0,30.16,East,85,0.0,0.0,64,0.00,,---,0.00,VWS V14.01,2013-01-02 18:48:00,
2013-01-02 10:54:00,46.9,34.2,30.15,East,85,0.0,0.0,61,0.00,,---,0.00,VWS V14.01,2013-01-02 18:54:00,
2013-01-02 10:59:00,47.4,34.6,30.16,East,85,0.0,0.0,61,0.00,,---,0.00,VWS V14.01,2013-01-02 18:59:00,
2013-01-02 11:04:00,47.9,33.8,30.15,East,86,0.0,0.0,58,0.00,,---,0.00,VWS V14.01,2013-01-02 19:04:00,
2013-01-02 11:09:00,48.5,34.4,30.15,East,85,0.0,0.0,58,0.00,,---,0.00,VWS V14.01,2013-01-02 19:09:00,
2013-01-02 11:14:00,49.1,34.5,30.15,North,9,1.0,0.0,57,0.00,,---,0.00,VWS V14.01,2013-01-02 19:14:00,
2013-01-02 11:19:00,49.8,35.2,30.15,North,9,0.0,0.0,57,0.00,,---,0.00,VWS V14.01,2013-01-02 19:19:00,
2013-01-02 11:24:00,50.3,35.2,30.15,North,9,0.0,0.0,56,0.00,,---,0.00,VWS V14.01,2013-01-02 19:24:00,
2013-01-02 11:29:00,50.8,36.6,30.15,North,9,0.0,0.0,58,0.00,,---,0.00,VWS V14.01,2013-01-02 19:29:00,
2013-01-02 11:34:00,51.3,34.8,30.14,NNW,346,0.0,0.0,53,0.00,,---,0.00,VWS V14.01,2013-01-02 19:34:00,
2013-01-02 11:39:00,52.1,34.5,30.14,NW,316,0.0,0.0,51,0.00,,---,0.00,VWS V14.01,2013-01-02 19:39:00,
2013-01-02 11:44:00,52.8,35.7,30.14,West,265,0.0,0.0,52,0.00,,---,0.00,VWS V14.01,2013-01-02 19:44:00,
2013-01-02 11:49:00,53.2,37.0,30.14,West,265,0.0,0.0,54,0.00,,---,0.00,VWS V14.01,2013-01-02 19:49:00,
2013-01-02 11:54:00,53.6,34.4,30.14,WNW,295,0.0,0.0,48,0.00,,---,0.00,VWS V14.01,2013-01-02 19:54:00,
2013-01-02 11:59:00,53.7,34.0,30.13,West,259,1.0,0.0,47,0.00,,---,0.00,VWS V14.01,2013-01-02 19:59:00,
2013-01-02 12:04:00,53.7,35.0,30.13,North,360,0.0,0.0,49,0.00,,---,0.00,VWS V14.01,2013-01-02 20:04:00,
2013-01-02 12:09:00,54.2,34.4,30.13,NNW,344,0.0,0.0,47,0.00,,---,0.00,VWS V14.01,2013-01-02 20:09:00,
2013-01-02 12:15:00,54.4,35.1,30.13,NNW,335,0.0,0.0,48,0.00,,---,0.00,VWS V14.01,2013-01-02 20:15:00,
2013-01-02 12:20:00,54.4,34.6,30.12,SSW,210,0.0,0.0,47,0.00,,---,0.00,VWS V14.01,2013-01-02 20:20:00,
2013-01-02 12:25:00,54.6,34.2,30.12,WNW,303,2.0,0.0,46,0.00,,---,0.00,VWS V14.01,2013-01-02 20:25:00,
2013-01-02 12:30:00,54.8,34.4,30.12,WSW,247,0.0,0.0,46,0.00,,---,0.00,VWS V14.01,2013-01-02 20:30:00,
2013-01-02 12:35:00,54.8,34.4,30.12,NNW,327,0.0,0.0,46,0.00,,---,0.00,VWS V14.01,2013-01-02 20:35:00,
2013-01-02 12:40:00,55.1,34.7,30.11,WNW,291,0.0,0.0,46,0.00,,---,0.00,VWS V14.01,2013-01-02 20:40:00,
2013-01-02 12:45:00,55.2,34.2,30.11,SW,235,0.0,0.0,45,0.00,,---,0.00,VWS V14.01,2013-01-02 20:45:00,
2013-01-02 12:50:00,55.3,34.9,30.11,NNW,345,0.0,0.0,46,0.00,,---,0.00,VWS V14.01,2013-01-02 20:50:00,
2013-01-02 12:55:00,55.5,35.1,30.11,WNW,303,1.0,0.0,46,0.00,,---,0.00,VWS V14.01,2013-01-02 20:55:00,
2013-01-02 13:00:00,55.7,34.7,30.11,NW,312,1.0,0.0,45,0.00,,---,0.00,VWS V14.01,2013-01-02 21:00:00,
2013-01-02 13:05:00,56.0,35.0,30.11,NNW,347,2.0,0.0,45,0.00,,---,0.00,VWS V14.01,2013-01-02 21:05:00,
2013-01-02 13:10:00,56.5,35.4,30.11,NNE,16,0.0,0.0,45,0.00,,---,0.00,VWS V14.01,2013-01-02 21:10:00,
2013-01-02 13:15:00,57.2,36.6,30.10,North,360,0.0,0.0,46,0.00,,---,0.00,VWS V14.01,2013-01-02 21:15:00,
2013-01-02 13:20:00,57.7,37.1,30.10,NE,40,0.0,0.0,46,0.00,,---,0.00,VWS V14.01,2013-01-02 21:20:00,
2013-01-02 13:25:00,57.7,37.1,30.10,East,83,2.0,0.0,46,0.00,,---,0.00,VWS V14.01,2013-01-02 21:25:00,
2013-01-02 13:30:00,57.6,37.5,30.10,NNE,30,6.0,0.0,47,0.00,,---,0.00,VWS V14.01,2013-01-02 21:30:00,
2013-01-02 13:35:00,57.7,37.1,30.10,NE,56,0.0,0.0,46,0.00,,---,0.00,VWS V14.01,2013-01-02 21:35:00,
2013-01-02 13:40:00,58.2,38.1,30.09,North,360,2.0,0.0,47,0.00,,---,0.00,VWS V14.01,2013-01-02 21:40:00,
2013-01-02 13:45:00,58.6,37.3,30.09,NNE,17,2.0,0.0,45,0.00,,---,0.00,VWS V14.01,2013-01-02 21:45:00,
2013-01-02 13:51:00,58.3,37.6,30.09,ESE,113,1.0,0.0,46,0.00,,---,0.00,VWS V14.01,2013-01-02 21:51:00,
2013-01-02 13:56:00,58.3,38.7,30.09,West,279,2.0,0.0,48,0.00,,---,0.00,VWS V14.01,2013-01-02 21:56:00,
2013-01-02 14:01:00,57.6,38.1,30.09,NNW,333,2.0,0.0,48,0.00,,---,0.00,VWS V14.01,2013-01-02 22:01:00,
2013-01-02 14:06:00,57.8,37.7,30.09,NNE,19,2.0,0.0,47,0.00,,---,0.00,VWS V14.01,2013-01-02 22:06:00,
2013-01-02 14:11:00,57.8,37.7,30.08,NE,35,3.0,0.0,47,0.00,,---,0.00,VWS V14.01,2013-01-02 22:11:00,
2013-01-02 14:16:00,57.9,37.8,30.08,NW,323,2.0,0.0,47,0.00,,---,0.00,VWS V14.01,2013-01-02 22:16:00,
2013-01-02 14:21:00,58.2,38.1,30.08,NE,46,0.0,0.0,47,0.00,,---,0.00,VWS V14.01,2013-01-02 22:21:00,
2013-01-02 14:26:00,58.2,38.1,30.08,NW,325,0.0,0.0,47,0.00,,---,0.00,VWS V14.01,2013-01-02 22:26:00,
2013-01-02 14:31:00,57.7,37.6,30.08,North,11,2.0,0.0,47,0.00,,---,0.00,VWS V14.01,2013-01-02 22:31:00,
2013-01-02 14:36:00,57.8,37.7,30.08,NW,325,1.0,0.0,47,0.00,,---,0.00,VWS V14.01,2013-01-02 22:36:00,
2013-01-02 14:41:00,57.4,37.9,30.08,North,5,2.0,0.0,48,0.00,,---,0.00,VWS V14.01,2013-01-02 22:41:00,
2013-01-02 14:46:00,57.6,38.1,30.08,NNW,338,1.0,0.0,48,0.00,,---,0.00,VWS V14.01,2013-01-02 22:46:00,
2013-01-02 14:51:00,57.7,38.2,30.08,WNW,296,0.0,0.0,48,0.00,,---,0.00,VWS V14.01,2013-01-02 22:51:00,
2013-01-02 14:56:00,57.7,38.7,30.08,NNE,14,2.0,0.0,49,0.00,,---,0.00,VWS V14.01,2013-01-02 22:56:00,
2013-01-02 15:01:00,57.9,37.8,30.08,NNE,33,4.0,0.0,47,0.00,,---,0.00,VWS V14.01,2013-01-02 23:01:00,
2013-01-02 15:06:00,57.6,38.1,30.08,NE,49,0.0,0.0,48,0.00,,---,0.00,VWS V14.01,2013-01-02 23:06:00,
2013-01-02 15:12:00,56.7,37.8,30.08,North,355,2.0,0.0,49,0.00,,---,0.00,VWS V14.01,2013-01-02 23:12:00,
2013-01-02 15:17:00,55.9,37.5,30.08,North,9,0.0,0.0,50,0.00,,---,0.00,VWS V14.01,2013-01-02 23:17:00,
2013-01-02 15:22:00,55.3,37.5,30.08,North,9,1.0,0.0,51,0.00,,---,0.00,VWS V14.01,2013-01-02 23:22:00,
2013-01-02 15:27:00,54.8,37.0,30.08,NNE,32,0.0,0.0,51,0.00,,---,0.00,VWS V14.01,2013-01-02 23:27:00,
2013-01-02 15:32:00,54.4,37.2,30.08,NW,326,0.0,0.0,52,0.00,,---,0.00,VWS V14.01,2013-01-02 23:32:00,
2013-01-02 15:37:00,53.9,36.7,30.08,NNE,27,1.0,0.0,52,0.00,,---,0.00,VWS V14.01,2013-01-02 23:37:00,
2013-01-02 15:42:00,53.4,36.7,30.08,NNE,27,0.0,0.0,53,0.00,,---,0.00,VWS V14.01,2013-01-02 23:42:00,
2013-01-02 15:47:00,52.8,36.6,30.08,NE,40,1.0,0.0,54,0.00,,---,0.00,VWS V14.01,2013-01-02 23:47:00,
2013-01-02 15:52:00,52.3,36.6,30.08,NNW,340,0.0,0.0,55,0.00,,---,0.00,VWS V14.01,2013-01-02 23:52:00,
2013-01-02 15:57:00,51.9,36.3,30.08,North,355,1.0,0.0,55,0.00,,---,0.00,VWS V14.01,2013-01-02 23:57:00,
2013-01-02 16:02:00,51.6,36.4,30.08,North,350,0.0,0.0,56,0.00,,---,0.00,VWS V14.01,2013-01-03 00:02:00,
2013-01-02 16:07:00,51.3,36.2,30.08,NNW,346,0.0,0.0,56,0.00,,---,0.00,VWS V14.01,2013-01-03 00:07:00,
2013-01-02 16:12:00,51.0,35.9,30.08,NNW,340,0.0,0.0,56,0.00,,---,0.00,VWS V14.01,2013-01-03 00:12:00,
2013-01-02 16:18:00,50.6,35.9,30.08,North,5,0.0,0.0,57,0.00,,---,0.00,VWS V14.01,2013-01-03 00:18:00,
2013-01-02 16:23:00,50.3,35.7,30.08,North,5,0.0,0.0,57,0.00,,---,0.00,VWS V14.01,2013-01-03 00:23:00,
2013-01-02 16:28:00,50.0,35.8,30.08,North,9,0.0,0.0,58,0.00,,---,0.00,VWS V14.01,2013-01-03 00:28:00,
2013-01-02 16:33:00,49.6,35.9,30.08,North,5,0.0,0.0,59,0.00,,---,0.00,VWS V14.01,2013-01-03 00:33:00,
2013-01-02 16:38:00,49.3,35.6,30.08,North,9,0.0,0.0,59,0.00,,---,0.00,VWS V14.01,2013-01-03 00:38:00,
2013-01-02 16:43:00,49.0,35.7,30.08,North,9,0.0,0.0,60,0.00,,---,0.00,VWS V14.01,2013-01-03 00:43:00,
2013-01-02 16:48:00,48.5,35.7,30.07,North,5,0.0,0.0,61,0.00,,---,0.00,VWS V14.01,2013-01-03 00:48:00,
2013-01-02 16:53:00,48.2,35.4,30.08,North,5,1.0,0.0,61,0.00,,---,0.00,VWS V14.01,2013-01-03 00:53:00,
2013-01-02 16:58:00,47.9,35.1,30.07,North,5,0.0,0.0,61,0.00,,---,0.00,VWS V14.01,2013-01-03 00:58:00,
2013-01-02 17:03:00,47.6,35.2,30.07,North,5,0.0,0.0,62,0.00,,---,0.00,VWS V14.01,2013-01-03 01:03:00,
2013-01-02 17:08:00,47.2,35.3,30.07,North,5,0.0,0.0,63,0.00,,---,0.00,VWS V14.01,2013-01-03 01:08:00,
2013-01-02 17:13:00,46.9,35.0,30.07,North,5,0.0,0.0,63,0.00,,---,0.00,VWS V14.01,2013-01-03 01:13:00,
2013-01-02 17:18:00,46.5,35.0,30.07,North,5,0.0,0.0,64,0.00,,---,0.00,VWS V14.01,2013-01-03 01:18:00,
2013-01-02 17:24:00,46.1,35.0,30.07,North,5,0.0,0.0,65,0.00,,---,0.00,VWS V14.01,2013-01-03 01:24:00,
2013-01-02 17:29:00,45.5,34.8,30.07,North,5,0.0,0.0,66,0.00,,---,0.00,VWS V14.01,2013-01-03 01:29:00,
2013-01-02 17:34:00,44.9,34.6,30.07,North,5,0.0,0.0,67,0.00,,---,0.00,VWS V14.01,2013-01-03 01:34:00,
2013-01-02 17:39:00,44.5,34.6,30.07,North,5,0.0,0.0,68,0.00,,---,0.00,VWS V14.01,2013-01-03 01:39:00,
2013-01-02 17:44:00,44.2,34.3,30.07,North,5,0.0,0.0,68,0.00,,---,0.00,VWS V14.01,2013-01-03 01:44:00,
2013-01-02 17:49:00,44.0,34.5,30.07,North,5,0.0,0.0,69,0.00,,---,0.00,VWS V14.01,2013-01-03 01:49:00,
2013-01-02 17:54:00,43.7,34.6,30.07,North,5,0.0,0.0,70,0.00,,---,0.00,VWS V14.01,2013-01-03 01:54:00,
2013-01-02 17:59:00,43.3,34.5,30.07,North,5,0.0,0.0,71,0.00,,---,0.00,VWS V14.01,2013-01-03 01:59:00,
2013-01-02 18:04:00,42.9,34.8,30.07,North,5,0.0,0.0,73,0.00,,---,0.00,VWS V14.01,2013-01-03 02:04:00,
2013-01-02 18:09:00,42.5,34.5,30.07,North,5,0.0,0.0,73,0.00,,---,0.00,VWS V14.01,2013-01-03 02:09:00,
2013-01-02 18:14:00,42.2,34.5,30.07,North,5,0.0,0.0,74,0.00,,---,0.00,VWS V14.01,2013-01-03 02:14:00,
2013-01-02 18:19:00,41.8,34.5,30.07,North,5,0.0,0.0,75,0.00,,---,0.00,VWS V14.01,2013-01-03 02:19:00,
2013-01-02 18:24:00,41.5,34.5,30.07,North,5,0.0,0.0,76,0.00,,---,0.00,VWS V14.01,2013-01-03 02:24:00,
2013-01-02 18:29:00,41.3,34.7,30.07,North,5,0.0,0.0,77,0.00,,---,0.00,VWS V14.01,2013-01-03 02:29:00,
2013-01-02 18:34:00,41.1,34.5,30.07,North,9,0.0,0.0,77,0.00,,---,0.00,VWS V14.01,2013-01-03 02:34:00,
2013-01-02 18:39:00,41.1,34.5,30.07,North,5,0.0,0.0,77,0.00,,---,0.00,VWS V14.01,2013-01-03 02:39:00,
2013-01-02 18:45:00,41.1,34.8,30.07,North,5,0.0,0.0,78,0.00,,---,0.00,VWS V14.01,2013-01-03 02:45:00,
2013-01-02 18:50:00,41.0,34.7,30.07,North,5,0.0,0.0,78,0.00,,---,0.00,VWS V14.01,2013-01-03 02:50:00,
2013-01-02 18:55:00,40.9,34.9,30.07,North,5,0.0,0.0,79,0.00,,---,0.00,VWS V14.01,2013-01-03 02:55:00,
2013-01-02 19:00:00,40.7,34.7,30.07,North,5,0.0,0.0,79,0.00,,---,0.00,VWS V14.01,2013-01-03 03:00:00,
2013-01-02 19:05:00,40.5,34.5,30.07,North,5,0.0,0.0,79,0.00,,---,0.00,VWS V14.01,2013-01-03 03:05:00,
2013-01-02 19:10:00,40.2,34.5,30.07,North,5,0.0,0.0,80,0.00,,---,0.00,VWS V14.01,2013-01-03 03:10:00,
2013-01-02 19:15:00,39.9,34.5,30.07,North,5,0.0,0.0,81,0.00,,---,0.00,VWS V14.01,2013-01-03 03:15:00,
2013-01-02 19:20:00,39.6,34.3,30.07,North,5,0.0,0.0,81,0.00,,---,0.00,VWS V14.01,2013-01-03 03:20:00,
2013-01-02 19:25:00,39.3,34.3,30.07,North,5,0.0,0.0,82,0.00,,---,0.00,VWS V14.01,2013-01-03 03:25:00,
2013-01-02 19:30:00,39.2,34.5,30.07,North,9,0.0,0.0,83,0.00,,---,0.00,VWS V14.01,2013-01-03 03:30:00,
2013-01-02 19:35:00,39.2,34.5,30.07,North,5,0.0,0.0,83,0.00,,---,0.00,VWS V14.01,2013-01-03 03:35:00,
2013-01-02 19:41:00,39.1,34.4,30.07,North,9,0.0,0.0,83,0.00,,---,0.00,VWS V14.01,2013-01-03 03:41:00,
2013-01-02 19:46:00,39.0,34.6,30.07,North,5,0.0,0.0,84,0.00,,---,0.00,VWS V14.01,2013-01-03 03:46:00,
2013-01-02 19:51:00,38.8,34.4,30.07,North,5,0.0,0.0,84,0.00,,---,0.00,VWS V14.01,2013-01-03 03:51:00,
2013-01-02 19:56:00,38.6,34.2,30.07,North,9,0.0,0.0,84,0.00,,---,0.00,VWS V14.01,2013-01-03 03:56:00,
2013-01-02 20:01:00,38.4,34.3,30.07,North,5,0.0,0.0,85,0.00,,---,0.00,VWS V14.01,2013-01-03 04:01:00,
2013-01-02 20:06:00,38.4,34.3,30.07,North,5,0.0,0.0,85,0.00,,---,0.00,VWS V14.01,2013-01-03 04:06:00,
2013-01-02 20:11:00,38.2,34.1,30.08,North,5,0.0,0.0,85,0.00,,---,0.00,VWS V14.01,2013-01-03 04:11:00,
2013-01-02 20:16:00,38.1,34.3,30.07,North,5,0.0,0.0,86,0.00,,---,0.00,VWS V14.01,2013-01-03 04:16:00,
2013-01-02 20:21:00,38.1,34.3,30.08,North,5,0.0,0.0,86,0.00,,---,0.00,VWS V14.01,2013-01-03 04:21:00,
2013-01-02 20:26:00,38.0,34.2,30.07,North,5,0.0,0.0,86,0.00,,---,0.00,VWS V14.01,2013-01-03 04:26:00,
2013-01-02 20:31:00,37.9,34.1,30.07,North,9,0.0,0.0,86,0.00,,---,0.00,VWS V14.01,2013-01-03 04:31:00,
2013-01-02 20:36:00,37.8,34.0,30.07,North,5,0.0,0.0,86,0.00,,---,0.00,VWS V14.01,2013-01-03 04:36:00,
2013-01-02 20:42:00,37.7,33.9,30.07,North,5,0.0,0.0,86,0.00,,---,0.00,VWS V14.01,2013-01-03 04:42:00,
2013-01-02 20:47:00,37.7,34.2,30.07,North,5,0.0,0.0,87,0.00,,---,0.00,VWS V14.01,2013-01-03 04:47:00,
2013-01-02 20:52:00,37.7,34.2,30.07,North,5,0.0,0.0,87,0.00,,---,0.00,VWS V14.01,2013-01-03 04:52:00,
2013-01-02 20:57:00,37.7,34.2,30.07,North,360,0.0,0.0,87,0.00,,---,0.00,VWS V14.01,2013-01-03 04:57:00,
2013-01-02 21:02:00,37.8,34.3,30.07,NNW,340,0.0,0.0,87,0.00,,---,0.00,VWS V14.01,2013-01-03 05:02:00,
2013-01-02 21:03:00,37.8,34.3,30.08,NNW,340,0.0,0.0,87,0.00,,---,0.00,VWS V14.01,2013-01-03 05:03:00,
2013-01-02 21:08:00,38.0,34.5,30.08,NNW,335,0.0,0.0,87,0.00,,---,0.00,VWS V14.01,2013-01-03 05:08:00,
2013-01-02 21:13:00,38.0,34.5,30.08,NNW,335,0.0,0.0,87,0.00,,---,0.00,VWS V14.01,2013-01-03 05:13:00,
2013-01-02 21:18:00,38.1,34.6,30.08,NNW,335,0.0,0.0,87,0.00,,---,0.00,VWS V14.01,2013-01-03 05:18:00,
2013-01-02 21:23:00,38.1,34.6,30.08,NNW,335,0.0,0.0,87,0.00,,---,0.00,VWS V14.01,2013-01-03 05:23:00,
2013-01-02 21:29:00,38.0,34.5,30.09,NNW,335,0.0,0.0,87,0.00,,---,0.00,VWS V14.01,2013-01-03 05:29:00,
2013-01-02 21:34:00,37.8,34.0,30.09,NNW,335,0.0,0.0,86,0.00,,---,0.00,VWS V14.01,2013-01-03 05:34:00,
2013-01-02 21:39:00,37.5,33.7,30.09,NNW,335,0.0,0.0,86,0.00,,---,0.00,VWS V14.01,2013-01-03 05:39:00,
2013-01-02 21:44:00,37.3,33.8,30.09,NNW,335,0.0,0.0,87,0.00,,---,0.00,VWS V14.01,2013-01-03 05:44:00,
2013-01-02 21:49:00,37.3,33.8,30.09,NNW,334,0.0,0.0,87,0.00,,---,0.00,VWS V14.01,2013-01-03 05:49:00,
2013-01-02 21:54:00,37.3,34.1,30.10,NNW,335,0.0,0.0,88,0.00,,---,0.00,VWS V14.01,2013-01-03 05:54:00,
2013-01-02 21:59:00,37.3,33.8,30.10,NNW,335,0.0,0.0,87,0.00,,---,0.00,VWS V14.01,2013-01-03 05:59:00,
2013-01-02 22:04:00,37.3,33.8,30.10,NNW,335,0.0,0.0,87,0.00,,---,0.00,VWS V14.01,2013-01-03 06:04:00,
2013-01-02 22:09:00,37.3,34.1,30.10,NNW,335,0.0,0.0,88,0.00,,---,0.00,VWS V14.01,2013-01-03 06:09:00,
2013-01-02 22:14:00,37.2,34.0,30.10,NNW,333,0.0,0.0,88,0.00,,---,0.00,VWS V14.01,2013-01-03 06:14:00,
2013-01-02 22:19:00,37.2,34.0,30.10,NNW,335,0.0,0.0,88,0.00,,---,0.00,VWS V14.01,2013-01-03 06:19:00,
2013-01-02 22:24:00,37.1,33.9,30.10,NNW,335,0.0,0.0,88,0.00,,---,0.00,VWS V14.01,2013-01-03 06:24:00,
2013-01-02 22:29:00,37.0,33.8,30.10,NNW,335,0.0,0.0,88,0.00,,---,0.00,VWS V14.01,2013-01-03 06:29:00,
2013-01-02 22:34:00,36.9,33.7,30.10,NNW,335,0.0,0.0,88,0.00,,---,0.00,VWS V14.01,2013-01-03 06:34:00,
2013-01-02 22:39:00,36.8,33.6,30.10,NNW,335,0.0,0.0,88,0.00,,---,0.00,VWS V14.01,2013-01-03 06:39:00,
2013-01-02 22:45:00,36.6,33.4,30.10,NNW,335,0.0,0.0,88,0.00,,---,0.00,VWS V14.01,2013-01-03 06:45:00,
2013-01-02 22:50:00,36.7,33.8,30.10,NNW,335,0.0,0.0,89,0.00,,---,0.00,VWS V14.01,2013-01-03 06:50:00,
2013-01-02 22:55:00,36.8,33.9,30.10,NNW,335,0.0,0.0,89,0.00,,---,0.00,VWS V14.01,2013-01-03 06:55:00,
2013-01-02 23:00:00,36.9,33.7,30.10,NNW,335,0.0,0.0,88,0.00,,---,0.00,VWS V14.01,2013-01-03 07:00:00,
2013-01-02 23:05:00,36.8,33.6,30.10,NNW,335,0.0,0.0,88,0.00,,---,0.00,VWS V14.01,2013-01-03 07:05:00,
2013-01-02 23:10:00,36.7,33.5,30.10,NNW,335,0.0,0.0,88,0.00,,---,0.00,VWS V14.01,2013-01-03 07:10:00,
2013-01-02 23:15:00,36.7,33.5,30.10,NNW,335,0.0,0.0,88,0.00,,---,0.00,VWS V14.01,2013-01-03 07:15:00,
2013-01-02 23:20:00,36.6,33.4,30.10,NNW,335,0.0,0.0,88,0.00,,---,0.00,VWS V14.01,2013-01-03 07:20:00,
2013-01-02 23:25:00,36.5,33.3,30.10,NNW,335,0.0,0.0,88,0.00,,---,0.00,VWS V14.01,2013-01-03 07:25:00,
2013-01-02 23:30:00,36.4,33.2,30.10,NNW,335,0.0,0.0,88,0.00,,---,0.00,VWS V14.01,2013-01-03 07:30:00,
2013-01-02 23:36:00,36.2,33.0,30.10,NNW,334,0.0,0.0,88,0.00,,---,0.00,VWS V14.01,2013-01-03 07:36:00,
2013-01-02 23:41:00,36.1,32.9,30.10,NNW,334,0.0,0.0,88,0.00,,---,0.00,VWS V14.01,2013-01-03 07:41:00,
2013-01-02 23:46:00,36.1,32.9,30.10,NNW,335,0.0,0.0,88,0.00,,---,0.00,VWS V14.01,2013-01-03 07:46:00,
2013-01-02 23:51:00,36.1,32.9,30.10,NNW,335,0.0,0.0,88,0.00,,---,0.00,VWS V14.01,2013-01-03 07:51:00,
2013-01-02 23:56:00,36.0,32.8,30.10,NNW,335,0.0,0.0,88,0.00,,---,0.00,VWS V14.01,2013-01-03 07:56:00,